• In Hungary
  • List of Countries
  • For 7 days
  • Water Temperature
  • Satellite Maps
  • Weather Map
  • News
  • Weather Widgets
  • user-avatar
    Login

    Hourly Weather Sharh

    Today, 20 August, Sunday

    Time Temperature Precipitation Wind Pressure Humidity
    00:00 +28°C° 0 mm 6 mps 751 mmHg 87%
    01:00 +28°C° 0 mm 6 mps 751 mmHg 88%
    02:00 +28°C° 0 mm 5 mps 751 mmHg 88%
    03:00 +27°C° 0 mm 4 mps 751 mmHg 88%
    04:00 +27°C° 0 mm 3 mps 751 mmHg 87%
    05:00 +27°C° 0 mm 3 mps 751 mmHg 86%
    06:00 +28°C° 0 mm 2 mps 751 mmHg 84%
    07:00 +28°C° 0 mm 2 mps 752 mmHg 83%
    08:00 +30°C° 0 mm 3 mps 752 mmHg 73%
    09:00 +31°C° 0 mm 3 mps 752 mmHg 63%
    10:00 +35°C° 0 mm 3 mps 752 mmHg 48%
    11:00 +36°C° 0 mm 4 mps 752 mmHg 46%
    12:00 +36°C° 0 mm 5 mps 752 mmHg 44%
    13:00 +37°C° 0 mm 5 mps 751 mmHg 42%
    14:00 +36°C° 0 mm 5 mps 751 mmHg 45%
    15:00 +36°C° 0 mm 5 mps 751 mmHg 47%
    16:00 +35°C° 0 mm 5 mps 750 mmHg 50%
    17:00 +33°C° 0 mm 5 mps 750 mmHg 58%
    18:00 +32°C° 0 mm 5 mps 750 mmHg 67%
    19:00 +29°C° 0 mm 5 mps 751 mmHg 75%
    20:00 +29°C° 0 mm 5 mps 751 mmHg 77%
    21:00 +28°C° 0 mm 5 mps 751 mmHg 79%
    22:00 +28°C° 0 mm 4 mps 751 mmHg 82%
    23:00 +28°C° 0 mm 4 mps 751 mmHg 83%

    Tomorrow, 21 August, Monday

    Time Temperature Precipitation Wind Pressure Humidity
    00:00 +28°C° 0 mm 4 mps 751 mmHg 84%
    01:00 +28°C° 0 mm 4 mps 751 mmHg 85%
    02:00 +27°C° 0 mm 4 mps 751 mmHg 86%
    03:00 +27°C° 0 mm 3 mps 750 mmHg 86%
    04:00 +27°C° 0 mm 2 mps 750 mmHg 87%
    05:00 +27°C° 0 mm 2 mps 751 mmHg 86%
    06:00 +27°C° 0 mm 2 mps 751 mmHg 85%
    07:00 +28°C° 0 mm 2 mps 751 mmHg 84%
    08:00 +29°C° 0 mm 2 mps 751 mmHg 74%
    09:00 +31°C° 0 mm 3 mps 751 mmHg 64%
    10:00 +34°C° 0 mm 3 mps 751 mmHg 55%
    11:00 +35°C° 0 mm 3 mps 751 mmHg 49%
    12:00 +37°C° 0 mm 4 mps 750 mmHg 43%
    13:00 +39°C° 0 mm 5 mps 750 mmHg 37%
    14:00 +39°C° 0 mm 5 mps 750 mmHg 40%
    15:00 +38°C° 0 mm 6 mps 749 mmHg 44%
    16:00 +36°C° 0 mm 6 mps 749 mmHg 47%
    17:00 +35°C° 0 mm 6 mps 749 mmHg 55%
    18:00 +33°C° 0 mm 6 mps 749 mmHg 63%
    19:00 +30°C° 0 mm 5 mps 749 mmHg 72%
    20:00 +29°C° 0 mm 5 mps 750 mmHg 75%
    21:00 +29°C° 0 mm 4 mps 750 mmHg 79%
    22:00 +28°C° 0 mm 4 mps 750 mmHg 82%
    23:00 +28°C° 0 mm 4 mps 750 mmHg 83%

    Day after tomorrow, 22 August, Tuesday

    Time Temperature Precipitation Wind Pressure Humidity
    00:00 +28°C° 0 mm 3 mps 750 mmHg 85%
    01:00 +28°C° 0 mm 3 mps 750 mmHg 86%
    02:00 +27°C° 0 mm 3 mps 749 mmHg 87%
    03:00 +27°C° 0 mm 2 mps 749 mmHg 87%
    04:00 +27°C° 0 mm 2 mps 749 mmHg 88%
    05:00 +27°C° 0 mm 2 mps 749 mmHg 86%
    06:00 +28°C° 0 mm 2 mps 749 mmHg 84%
    07:00 +28°C° 0 mm 2 mps 750 mmHg 81%
    08:00 +30°C° 0 mm 3 mps 750 mmHg 72%
    09:00 +33°C° 0 mm 3 mps 750 mmHg 62%
    10:00 +34°C° 0 mm 3 mps 750 mmHg 52%
    11:00 +36°C° 0 mm 4 mps 750 mmHg 48%
    12:00 +37°C° 0 mm 4 mps 750 mmHg 45%
    13:00 +38°C° 0 mm 4 mps 749 mmHg 41%
    14:00 +39°C° 0 mm 5 mps 749 mmHg 43%
    15:00 +37°C° 0 mm 5 mps 749 mmHg 45%
    16:00 +38°C° 0 mm 6 mps 748 mmHg 47%
    17:00 +35°C° 0 mm 6 mps 748 mmHg 55%
    18:00 +33°C° 0 mm 6 mps 749 mmHg 62%
    19:00 +30°C° 0 mm 6 mps 749 mmHg 70%
    20:00 +30°C° 0 mm 5 mps 749 mmHg 73%
    21:00 +29°C° 0 mm 5 mps 750 mmHg 75%
    22:00 +29°C° 0 mm 5 mps 750 mmHg 77%
    23:00 +29°C° 0 mm 4 mps 750 mmHg 79%

    23 August, Wednesday

    Time Temperature Precipitation Wind Pressure Humidity
    00:00 +29°C° 0 mm 4 mps 750 mmHg 80%
    01:00 +28°C° 0 mm 3 mps 750 mmHg 82%
    02:00 +28°C° 0.2 mm 3 mps 749 mmHg 82%
    03:00 +28°C° 0.2 mm 3 mps 749 mmHg 82%
    04:00 +28°C° 0.2 mm 3 mps 749 mmHg 82%
    05:00 +28°C° 0.4 mm 3 mps 750 mmHg 81%
    06:00 +29°C° 0.4 mm 3 mps 750 mmHg 80%
    07:00 +29°C° 0.4 mm 2 mps 751 mmHg 79%
    08:00 +30°C° 0 mm 2 mps 751 mmHg 72%
    09:00 +31°C° 0 mm 3 mps 751 mmHg 65%
    10:00 +34°C° 0 mm 3 mps 751 mmHg 58%
    11:00 +35°C° 0 mm 4 mps 751 mmHg 55%
    12:00 +36°C° 0 mm 4 mps 751 mmHg 52%
    13:00 +37°C° 0 mm 5 mps 750 mmHg 49%
    14:00 +36°C° 0 mm 5 mps 750 mmHg 49%
    15:00 +36°C° 0 mm 5 mps 750 mmHg 49%
    16:00 +36°C° 0 mm 5 mps 749 mmHg 49%
    17:00 +35°C° 0 mm 5 mps 750 mmHg 55%
    18:00 +33°C° 0 mm 5 mps 750 mmHg 62%
    19:00 +32°C° 0 mm 5 mps 751 mmHg 69%
    20:00 +30°C° 0 mm 4 mps 751 mmHg 71%
    21:00 +30°C° 0 mm 4 mps 751 mmHg 72%
    22:00 +30°C° 0 mm 4 mps 752 mmHg 74%
    23:00 +29°C° 0 mm 4 mps 752 mmHg 77%

    24 August, Thursday

    Time Temperature Precipitation Wind Pressure Humidity
    00:00 +29°C° 0 mm 4 mps 751 mmHg 80%
    01:00 +28°C° 0 mm 4 mps 751 mmHg 83%
    02:00 +28°C° 0 mm 3 mps 751 mmHg 84%
    03:00 +28°C° 0 mm 3 mps 751 mmHg 84%
    04:00 +28°C° 0 mm 3 mps 751 mmHg 85%
    05:00 +28°C° 0 mm 3 mps 751 mmHg 84%
    06:00 +28°C° 0 mm 3 mps 752 mmHg 84%
    07:00 +28°C° 0 mm 3 mps 752 mmHg 83%
    08:00 +30°C° 0 mm 3 mps 752 mmHg 76%
    09:00 +32°C° 0 mm 4 mps 753 mmHg 69%
    10:00 +33°C° 0 mm 4 mps 753 mmHg 62%
    11:00 +34°C° 0 mm 5 mps 752 mmHg 59%
    12:00 +35°C° 0 mm 5 mps 752 mmHg 56%
    13:00 +35°C° 0 mm 6 mps 751 mmHg 54%
    14:00 +35°C° 0 mm 6 mps 751 mmHg 55%
    15:00 +35°C° 0 mm 6 mps 751 mmHg 56%
    16:00 +35°C° 0 mm 6 mps 751 mmHg 57%
    17:00 +33°C° 0 mm 6 mps 751 mmHg 63%
    18:00 +32°C° 0 mm 6 mps 752 mmHg 69%
    19:00 +30°C° 0 mm 6 mps 752 mmHg 75%
    20:00 +30°C° 0 mm 6 mps 752 mmHg 77%
    21:00 +29°C° 0 mm 6 mps 753 mmHg 79%
    22:00 +29°C° 0 mm 6 mps 753 mmHg 81%
    23:00 +29°C° 0 mm 6 mps 752 mmHg 81%

    25 August, Friday

    Time Temperature Precipitation Wind Pressure Humidity
    00:00 +28°C° 0 mm 6 mps 752 mmHg 81%
    01:00 +28°C° 0 mm 6 mps 752 mmHg 81%
    02:00 +28°C° 0 mm 6 mps 752 mmHg 80%
    03:00 +28°C° 0 mm 5 mps 751 mmHg 80%
    04:00 +28°C° 0 mm 5 mps 751 mmHg 79%
    05:00 +29°C° 0 mm 5 mps 752 mmHg 78%
    06:00 +29°C° 0 mm 5 mps 752 mmHg 77%
    07:00 +29°C° 0 mm 5 mps 753 mmHg 76%
    08:00 +30°C° 0 mm 5 mps 753 mmHg 74%
    09:00 +30°C° 0 mm 5 mps 753 mmHg 71%
    10:00 +32°C° 0 mm 6 mps 753 mmHg 68%
    11:00 +33°C° 0 mm 6 mps 752 mmHg 63%
    12:00 +34°C° 0 mm 6 mps 752 mmHg 58%
    13:00 +36°C° 0 mm 6 mps 751 mmHg 53%
    14:00 +36°C° 0 mm 6 mps 751 mmHg 53%
    15:00 +36°C° 0 mm 6 mps 750 mmHg 54%
    16:00 +36°C° 0 mm 7 mps 750 mmHg 55%
    17:00 +34°C° 0 mm 7 mps 750 mmHg 62%
    18:00 +33°C° 0 mm 7 mps 750 mmHg 69%
    19:00 +31°C° 0 mm 8 mps 751 mmHg 75%
    20:00 +31°C° 0 mm 8 mps 751 mmHg 78%
    21:00 +29°C° 0 mm 8 mps 751 mmHg 80%
    22:00 +29°C° 0 mm 8 mps 751 mmHg 83%
    23:00 +28°C° 0 mm 7 mps 751 mmHg 83%
    Show more